This is the latest recevied weather packets stored in our database for station/object W5ITZ. If no packets are shown the sender has not sent any weather packets the latest 10 day(s).
| Time | Temp. | Humidity | Pressure | Rain* | Wind** | Luminosity | Snow |
|---|---|---|---|---|---|---|---|
| 1777845262 | 25° C | 46% | 1018.7 hPa | 0 mm | - | 554 W/m² | - |
| 1777844960 | 25° C | 47% | 1019.1 hPa | 0 mm | - | 578 W/m² | - |
| 1777844657 | 25° C | 47% | 1018.9 hPa | 0 mm | - | 567 W/m² | - |
| 1777844354 | 25.56° C | 46% | 1019.3 hPa | 0 mm | - | 611 W/m² | - |
| 1777844052 | 25.56° C | 48% | 1019.5 hPa | 0 mm | - | 625 W/m² | - |
| 1777843748 | 25° C | 53% | 1019.4 hPa | 0 mm | - | 635 W/m² | - |
| 1777843446 | 25° C | 49% | 1019.5 hPa | 0 mm | - | 654 W/m² | - |
| 1777843143 | 25° C | 49% | 1019.4 hPa | 0 mm | - | 673 W/m² | - |
| 1777842840 | 25.56° C | 49% | 1019.7 hPa | 0 mm | - | 701 W/m² | - |
| 1777842535 | 25.56° C | 47% | 1019.6 hPa | 0 mm | - | 584 W/m² | - |
| 1777842233 | 25.56° C | 46% | 1019.6 hPa | 0 mm | - | 751 W/m² | - |
| 1777841927 | 26.11° C | 45% | 1019.9 hPa | 0 mm | - | 796 W/m² | - |
| 1777841624 | 26.11° C | 45% | 1019.7 hPa | 0 mm | - | 839 W/m² | - |
| 1777841321 | 26.11° C | 45% | 1019.8 hPa | 0 mm | - | 847 W/m² | - |
| 1777841018 | 26.67° C | 44% | 1019.9 hPa | 0 mm | - | 426 W/m² | - |
| 1777840715 | 26.11° C | 40% | 1020 hPa | 0 mm | - | 897 W/m² | - |
| 1777840413 | 25.56° C | 39% | 1020 hPa | 0 mm | - | 860 W/m² | - |
| 1777840110 | 25.56° C | 39% | 1020.3 hPa | 0 mm | - | 882 W/m² | - |
| 1777839808 | 26.11° C | 39% | 1020 hPa | 0 mm | - | 221 W/m² | - |
| 1777839506 | 26.67° C | 38% | 1020.1 hPa | 0 mm | - | 891 W/m² | - |
| 1777839202 | 26.67° C | 38% | 1020.3 hPa | 0 mm | - | 866 W/m² | - |
| 1777838900 | 26.67° C | 35% | 1020.2 hPa | 0 mm | - | 878 W/m² | - |
| 1777838596 | 26.11° C | 40% | 1020.2 hPa | 0 mm | - | 894 W/m² | - |
| 1777838293 | 26.11° C | 35% | 1020.6 hPa | 0 mm | - | 901 W/m² | - |
| 1777837990 | 26.67° C | 34% | 1020.7 hPa | 0 mm | - | 905 W/m² | - |
* Rain latest hour (hover to see other rain measurements)
** Current wind speed in m/s (hover to see current wind gust speed)